Home   Weather   Dayton   Past weeks

Flag for USA Past Weather in Dayton, Ohio, USA — Yesterday and Last 2 Weeks

Now
72 °F

Sunny.


Feels Like: 75 °F
Forecast: 58 / 84 °F
Wind: 10 mph from South

Location: Dayton / Wright-Patterson Air Force Base

Current Time: Apr 26, 2017 at 12:03:09 pm

Latest Report: Apr 26, 2017 at 10:58 am


Visibility: 10 mi

Pressure: 29.68 "Hg

Humidity: 66%

Dew Point: 60 °F

Location of DaytonLocation

Past Weather in Dayton — Graph

°F

Dayton Temperature Yesterday

Maximum temperature yesterday: 77 °F (at 3:58 pm)
Minimum temperature yesterday: 51 °F (at 7:58 am)
Average temperature yesterday: 64 °F

High & Low Weather Summary for the Past Weeks

 TemperatureHumidityPressure
High82 °F (Apr 20, 2:58 pm)100% (Apr 11, 10:28 am)30.40 "Hg (Apr 11, 10:28 am)
Low37 °F (Apr 23, 6:58 am)21% (Apr 17, 2:58 pm)29.68 "Hg (Apr 25, 7:58 pm)
Average62 °F66%30.07 "Hg
* Reported Apr 11 10:28 am — Apr 26 10:58 am, Dayton, Weather by CustomWeather, © 2017

Note: Actual official high and low records may vary slightly from our data, if they occured in-between our weather recording intervals... More about our weather records

Advertising

Dayton Weather History for the Previous 24 Hours

Scroll right to see more
 ConditionsComfort  
Time TempWeatherWind HumidityBarometerVisibility
10:58 am
Wed, Apr 26
72 °FSunny.10 mph66%29.68 "Hg10 mi
9:58 am69 °FSunny.10 mph72%29.71 "Hg10 mi
8:58 am65 °FSunny.8 mph81%29.69 "Hg10 mi
7:58 am61 °FSunny.3 mph93%29.72 "Hg10 mi
6:58 am58 °FPassing clouds.No wind100%29.71 "Hg10 mi
5:58 am57 °FClear.No wind99%29.70 "Hg10 mi
4:58 am58 °FClear.No wind95%29.70 "Hg10 mi
3:58 am60 °FPassing clouds.No wind93%29.69 "Hg10 mi
2:58 am60 °FPassing clouds.No wind91%29.70 "Hg10 mi
1:58 am61 °FClear.No wind89%29.70 "Hg10 mi
12:58 am63 °FClear.No wind79%29.70 "Hg10 mi
11:58 pm
Tue, Apr 25
65 °FClear.5 mph73%29.69 "Hg10 mi
10:58 pm66 °FClear.7 mph70%29.70 "Hg10 mi
9:58 pm68 °FClear.7 mph65%29.69 "Hg10 mi
9:04 pm70 °FPassing clouds.5 mph57%29.68 "Hg10 mi
7:58 pm74 °FSunny.8 mph51%29.68 "Hg10 mi
6:58 pm74 °FScattered clouds.7 mph50%29.69 "Hg10 mi
5:58 pm76 °FPartly sunny.8 mph47%29.70 "Hg10 mi
4:58 pm75 °FPartly sunny.3 mph49%29.70 "Hg10 mi
3:58 pm77 °FScattered clouds.5 mph47%29.71 "Hg10 mi
2:58 pm75 °FLight rain. Scattered clouds.7 mph49%29.73 "Hg10 mi
1:58 pm74 °FSunny.10 mph52%29.75 "Hg10 mi
12:58 pm72 °FPassing clouds.9 mph52%29.77 "Hg10 mi
Weather by CustomWeather, © 2017

See weather overviewHow to use our weather pages